Weather in Stanford

United States     37°25′32″N   122°10′02″W
temp.,
°C
wind,
m/s
gust,
m/s
humid.,
%
clouds,
%
prec.,
mm/h
press.,
hPa
HPBL,
m
18 september, sat
sat1823:00+11sw239137 0.0 1017128
02:00+11sw229218 0.0 101768
05:00+12s338761 0.0 101763
08:00+14s228275 0.0 101863
11:00+19wnw236640 0.0 1018622
14:00+20w44659 0.0 1018707
17:00+20w34670 0.0 1017488
20:00+15wsw229111 0.0 101868
19 september, sun
sun1923:00+15ssw229292 0.0 101852
02:00+16ssw2289100 0.1 101792
05:00+16w2296100 0.4 101786
08:00+15nw239399 0.0 1019117
11:00+18nw456435 0.0 1019644
14:00+20wnw56530 0.0 1017751
17:00+18wnw47604 0.0 1016399
20:00+13wsw23868 0.0 101658
20 september, mon
mon2023:00+11ssw229028 0.0 101631
02:00+13sse11790 0.0 101511
05:00+13nw11790 0.0 101411
08:00+15ene11700 0.0 101534
11:00+20nne13450 0.0 1015404
14:00+23nnw13330 0.0 1013570
17:00+24nw33300 0.0 1012342
20:00+18wnw22490 0.0 101321
21 september, tue
tue2123:00+17sse11480 0.0 101411
02:00+17se22460 0.0 101413
05:00+17ese12440 0.0 101411
08:00+19ese11420 0.0 101616
11:00+25nne11290 0.0 1017315
14:00+27wnw43280 0.0 1016650
17:00+26w33290 0.0 1016344
20:00+19w22470 0.0 101726
22 september, wed
wed2223:00+17wsw11530 0.0 101818
02:00+17wsw11500 0.0 101811
05:00+16w11535 0.0 101813
08:00+18s11500 0.0 101924
11:00+23nnw22394 0.0 1019359
14:00+26nw33330 0.0 1017530
17:00+24wnw33329 0.0 1015288
20:00+18sw22455 0.0 101527